M I D A S
Marine Information and Data Acquisition System
Tripno 1617 of the Zeeleeuw from 2008-11-27 08:04:50 to 2008-11-27 16:01:30
Back to CruiseResearch ActivitiesStationsMapUnderway DataData graphs

EquipmentUnitsComments
TimeDGPSUTC
LatitudeDGPSDM.mWGS84
LongitudeDGPSDM.mWGS84
SpeedMeteo Stationm/sRelative wind speed
DirectionMeteo StationdegRelative wind direction
TemperatureMeteo Stationdeg CelciusAir temperature
PressureMeteo StationPaAtmospheric pressure
HumidityMeteo Station%Relative humidity
Missing or incorrect values are displayed as -999
Metereological data collected by the RV Zeeleeuw from 2008-11-27 08:00:37 to 2008-11-27 16:17:23
                                                                                    Next 1000 lines
Time Latitude Longitude Speed Direction Temperature Pressure Humidity
2008-11-27 08:00:47 51°13.624 2°56.049 -999 -999 -999 -999 -999
2008-11-27 08:00:52 51°13.624 2°56.049 -999 -999 -999 -999 -999
2008-11-27 08:00:57 51°13.624 2°56.049 -999 -999 -999 -999 -999
2008-11-27 08:01:02 51°13.624 2°56.049 -999 -999 -999 -999 -999
2008-11-27 08:01:07 51°13.624 2°56.049 -999 -999 -999 -999 -999
2008-11-27 08:01:12 51°13.624 2°56.049 -999 -999 -999 -999 -999
2008-11-27 08:01:17 51°13.624 2°56.049 -999 -999 -999 -999 -999
2008-11-27 08:01:22 51°13.624 2°56.049 -999 -999 -999 -999 -999
2008-11-27 08:01:27 51°13.624 2°56.049 -999 -999 -999 -999 -999
2008-11-27 08:01:32 51°13.624 2°56.049 -999 -999 -999 -999 -999
2008-11-27 08:01:37 51°13.624 2°56.049 -999 -999 -999 -999 -999
2008-11-27 08:01:42 51°13.624 2°56.049 -999 -999 -999 -999 -999
2008-11-27 08:01:47 51°13.624 2°56.049 -999 -999 -999 -999 -999
2008-11-27 08:01:52 51°13.624 2°56.049 -999 -999 -999 -999 -999
2008-11-27 08:01:57 51°13.624 2°56.049 -999 -999 -999 -999 -999
2008-11-27 08:02:01 51°13.624 2°56.049 -999 -999 -999 -999 -999
2008-11-27 08:02:07 51°13.624 2°56.049 -999 -999 -999 -999 -999
2008-11-27 08:02:12 51°13.624 2°56.049 -999 -999 -999 -999 -999
2008-11-27 08:02:17 51°13.624 2°56.049 -999 -999 -999 -999 -999
2008-11-27 08:02:22 51°13.624 2°56.049 -999 -999 -999 -999 -999
2008-11-27 08:02:27 51°13.624 2°56.049 -999 -999 -999 -999 -999
2008-11-27 08:02:32 51°13.624 2°56.049 -999 -999 -999 -999 -999
2008-11-27 08:02:37 51°13.624 2°56.049 -999 -999 -999 -999 -999
2008-11-27 08:02:42 51°13.624 2°56.049 -999 -999 -999 -999 -999
2008-11-27 08:02:47 51°13.624 2°56.049 -999 -999 -999 -999 -999
2008-11-27 08:02:52 51°13.623 2°56.049 -999 -999 -999 -999 -999
2008-11-27 08:02:57 51°13.623 2°56.049 -999 -999 -999 -999 -999
2008-11-27 08:03:02 51°13.623 2°56.049 -999 -999 -999 -999 -999
2008-11-27 08:03:07 51°13.623 2°56.049 -999 -999 -999 -999 -999
2008-11-27 08:03:12 51°13.623 2°56.049 -999 -999 -999 -999 -999
2008-11-27 08:03:17 51°13.623 2°56.049 -999 -999 -999 -999 -999
2008-11-27 08:03:22 51°13.623 2°56.048 -999 -999 -999 -999 -999
2008-11-27 08:03:27 51°13.623 2°56.048 -999 -999 -999 -999 -999
2008-11-27 08:03:32 51°13.623 2°56.047 -999 -999 -999 -999 -999
2008-11-27 08:03:37 51°13.624 2°56.045 -999 -999 -999 -999 -999
2008-11-27 08:03:42 51°13.625 2°56.042 -999 -999 -999 -999 -999
2008-11-27 08:03:47 51°13.626 2°56.037 -999 -999 -999 -999 -999
2008-11-27 08:03:52 51°13.628 2°56.033 -999 -999 -999 -999 -999
2008-11-27 08:03:57 51°13.63 2°56.027 -999 -999 -999 -999 -999
2008-11-27 08:04:02 51°13.632 2°56.022 4.1 25 -999 -999 -999
2008-11-27 08:04:07 51°13.634 2°56.015 4.6 24 -999 -999 -999
2008-11-27 08:04:12 51°13.636 2°56.009 4.3 40 -999 -999 -999
2008-11-27 08:04:17 51°13.638 2°56.002 3.7 33 7.1 -999 82
2008-11-27 08:04:22 51°13.64 2°55.995 4.1 20 7.1 -999 82
2008-11-27 08:04:27 51°13.642 2°55.987 3.6 14 7.1 -999 89
2008-11-27 08:04:32 51°13.644 2°55.979 2.8 32 7.1 -999 89
2008-11-27 08:04:37 51°13.646 2°55.971 3.8 27 7.1 101830 90
2008-11-27 08:04:42 51°13.648 2°55.963 4.5 33 7.1 101830 90
2008-11-27 08:04:47 51°13.651 2°55.955 4.7 24 7.1 101830 90
2008-11-27 08:04:52 51°13.653 2°55.946 3.8 23 7.1 101830 90
2008-11-27 08:04:57 51°13.656 2°55.937 4.9 29 7.1 101820 91
2008-11-27 08:05:02 51°13.659 2°55.928 4.8 24 7.1 101820 91
2008-11-27 08:05:07 51°13.662 2°55.919 4.2 25 7.1 101820 91
2008-11-27 08:05:12 51°13.665 2°55.91 3.4 24 7.1 101820 91
2008-11-27 08:05:17 51°13.668 2°55.902 3.3 5 7.1 101820 91
2008-11-27 08:05:22 51°13.671 2°55.893 3.5 35 7.1 101820 91
2008-11-27 08:05:27 51°13.675 2°55.884 3.7 21 7.1 101820 92
2008-11-27 08:05:32 51°13.678 2°55.875 3.5 37 7.1 101820 92
2008-11-27 08:05:37 51°13.681 2°55.866 4.3 19 7.1 101820 92
2008-11-27 08:05:42 51°13.684 2°55.857 2.5 34 7.1 101820 92
2008-11-27 08:05:47 51°13.687 2°55.849 2.1 36 7.1 101820 93
2008-11-27 08:05:52 51°13.69 2°55.84 3.3 8 7.1 101820 93
2008-11-27 08:05:57 51°13.692 2°55.831 5.6 28 7.1 101820 92
2008-11-27 08:06:02 51°13.695 2°55.823 5.1 20 7.1 101820 92
2008-11-27 08:06:07 51°13.698 2°55.814 4.6 29 7.2 101820 94
2008-11-27 08:06:12 51°13.7 2°55.806 4.9 20 7.2 101820 94
2008-11-27 08:06:17 51°13.702 2°55.799 4.5 33 7.2 101820 93
2008-11-27 08:06:22 51°13.705 2°55.792 4.1 37 7.2 101820 93
2008-11-27 08:06:27 51°13.707 2°55.786 5.4 28 7.1 101820 94
2008-11-27 08:06:32 51°13.709 2°55.782 4.4 21 7.1 101820 94
2008-11-27 08:06:37 51°13.71 2°55.779 6.4 12 7.2 101820 94
2008-11-27 08:06:41 51°13.71 2°55.778 6.2 29 7.2 101820 94
2008-11-27 08:06:46 51°13.711 2°55.777 6.6 22 7.2 101820 93
2008-11-27 08:06:51 51°13.711 2°55.775 4.2 19 7.2 101820 93
2008-11-27 08:06:56 51°13.712 2°55.773 4.8 17 7.2 101820 93
2008-11-27 08:07:01 51°13.712 2°55.769 6.2 25 7.2 101820 93
2008-11-27 08:07:05 51°13.713 2°55.766 6.1 32 7.2 101820 93
2008-11-27 08:07:10 51°13.713 2°55.762 5 31 7.2 101820 93
2008-11-27 08:07:15 51°13.714 2°55.757 4.5 25 7.1 101820 94
2008-11-27 08:07:20 51°13.714 2°55.752 4.4 28 7.1 101820 94
2008-11-27 08:07:25 51°13.715 2°55.746 3.6 36 7.2 101820 95
2008-11-27 08:07:31 51°13.715 2°55.74 4.5 30 7.2 101820 95
2008-11-27 08:07:36 51°13.715 2°55.734 3.8 30 7.2 101820 95
2008-11-27 08:07:41 51°13.715 2°55.729 4.1 30 7.2 101820 95
2008-11-27 08:07:45 51°13.715 2°55.726 3.9 34 7.1 101820 95
2008-11-27 08:07:50 51°13.715 2°55.721 3.4 37 7.1 101820 95
2008-11-27 08:07:56 51°13.715 2°55.717 4.4 19 7.2 101820 95
2008-11-27 08:08:00 51°13.715 2°55.716 1.8 43 7.2 101820 95
2008-11-27 08:08:05 51°13.715 2°55.716 1.9 43 7.2 101820 94
2008-11-27 08:08:09 51°13.716 2°55.715 1.9 40 7.2 101820 94
2008-11-27 08:08:15 51°13.716 2°55.715 2.2 37 7.2 101820 94
2008-11-27 08:08:19 51°13.716 2°55.714 2.7 33 7.2 101820 94
2008-11-27 08:08:24 51°13.716 2°55.713 2.9 42 7.2 101820 94
2008-11-27 08:08:29 51°13.715 2°55.711 4.8 36 7.2 101820 94
2008-11-27 08:08:33 51°13.714 2°55.709 4.8 27 7.2 101820 95
2008-11-27 08:08:39 51°13.713 2°55.706 3.4 34 7.2 101820 95
2008-11-27 08:08:44 51°13.712 2°55.704 4.1 28 7.2 101820 95
2008-11-27 08:08:49 51°13.712 2°55.702 2.1 36 7.2 101820 95
2008-11-27 08:08:53 51°13.712 2°55.702 2.9 23 7.2 101820 95
2008-11-27 08:08:59 51°13.714 2°55.702 2.6 36 7.2 101820 95
2008-11-27 08:09:04 51°13.716 2°55.704 2.1 19 7.2 101820 96
2008-11-27 08:09:09 51°13.719 2°55.705 1.3 34 7.2 101820 96
2008-11-27 08:09:13 51°13.723 2°55.705 1.3 23 7.2 101820 96
2008-11-27 08:09:18 51°13.727 2°55.705 0.7 267 7.2 101820 96
2008-11-27 08:09:24 51°13.733 2°55.704 1.1 267 7.2 101820 96
2008-11-27 08:09:29 51°13.739 2°55.701 0.9 250 7.2 101820 96
2008-11-27 08:09:33 51°13.745 2°55.698 1.8 20 7.2 101820 96
2008-11-27 08:09:38 51°13.752 2°55.694 2.5 31 7.2 101820 96
2008-11-27 08:09:44 51°13.762 2°55.688 3.5 21 7.2 101820 96
2008-11-27 08:09:49 51°13.771 2°55.683 4.6 252 7.2 101820 96
2008-11-27 08:09:53 51°13.778 2°55.678 3.8 251 7.2 101820 96
2008-11-27 08:09:58 51°13.787 2°55.671 4.4 244 7.2 101820 96
2008-11-27 08:10:04 51°13.799 2°55.662 4.2 251 7.2 101820 96
2008-11-27 08:10:09 51°13.81 2°55.655 2.4 250 7.2 101820 96
2008-11-27 08:10:13 51°13.818 2°55.649 1.6 262 7.2 101820 96
2008-11-27 08:10:18 51°13.829 2°55.641 2.3 40 7.2 101820 96
2008-11-27 08:10:24 51°13.842 2°55.631 2.2 22 7.2 101820 96
2008-11-27 08:10:28 51°13.851 2°55.624 1.2 335 7.2 101820 96
2008-11-27 08:10:33 51°13.862 2°55.615 0.9 9 7.2 101820 96
2008-11-27 08:10:39 51°13.876 2°55.605 0.5 346 7.2 101820 96
2008-11-27 08:10:44 51°13.888 2°55.596 0.6 324 7.2 101820 96
2008-11-27 08:10:48 51°13.897 2°55.59 1.2 339 7.2 101820 96
2008-11-27 08:10:53 51°13.908 2°55.581 0.8 339 7.2 101820 96
2008-11-27 08:10:59 51°13.921 2°55.571 1.5 244 7.2 101820 96
2008-11-27 08:11:04 51°13.932 2°55.563 3.1 256 7.2 101810 96
2008-11-27 08:11:08 51°13.94 2°55.556 3.1 241 7.2 101810 96
2008-11-27 08:11:13 51°13.951 2°55.548 3.2 253 7.2 101820 96
2008-11-27 08:11:18 51°13.961 2°55.54 3.1 255 7.2 101820 96
2008-11-27 08:11:24 51°13.974 2°55.531 2.8 262 7.2 101810 97
2008-11-27 08:11:29 51°13.985 2°55.523 2 248 7.2 101810 97
2008-11-27 08:11:33 51°13.993 2°55.516 2.1 249 7.2 101810 97
2008-11-27 08:11:38 51°14.003 2°55.508 2.3 34 7.2 101810 97
2008-11-27 08:11:44 51°14.015 2°55.499 2.7 28 7.2 101820 96
2008-11-27 08:11:49 51°14.025 2°55.491 2.3 30 7.2 101820 96
2008-11-27 08:11:53 51°14.033 2°55.484 2.8 20 7.2 101820 97
2008-11-27 08:11:58 51°14.042 2°55.476 3 317 7.2 101820 97
2008-11-27 08:12:04 51°14.053 2°55.467 2.2 25 7.2 101820 97
2008-11-27 08:12:09 51°14.062 2°55.459 2.2 243 7.2 101820 97
2008-11-27 08:12:13 51°14.069 2°55.453 3.1 25 7.2 101810 98
2008-11-27 08:12:18 51°14.078 2°55.446 4.1 260 7.2 101810 98
2008-11-27 08:12:24 51°14.089 2°55.437 5.2 255 7.2 101810 98
2008-11-27 08:12:28 51°14.096 2°55.431 4.6 41 7.2 101810 98
2008-11-27 08:12:33 51°14.105 2°55.423 3.6 27 7.2 101810 96
2008-11-27 08:12:38 51°14.113 2°55.416 2 31 7.2 101810 96
2008-11-27 08:12:44 51°14.123 2°55.407 2.1 17 7.3 101820 97
2008-11-27 08:12:49 51°14.131 2°55.399 3.3 255 7.3 101820 97
2008-11-27 08:12:54 51°14.14 2°55.392 3.1 256 7.3 101810 97
2008-11-27 08:12:59 51°14.148 2°55.384 3.3 242 7.3 101810 97
2008-11-27 08:13:04 51°14.156 2°55.377 2.9 319 7.2 101810 97
2008-11-27 08:13:09 51°14.165 2°55.369 3.2 237 7.2 101810 97
2008-11-27 08:13:13 51°14.171 2°55.363 4.2 18 7.3 101810 98
2008-11-27 08:13:19 51°14.181 2°55.353 2.8 251 7.3 101810 98
2008-11-27 08:13:24 51°14.189 2°55.345 3.1 23 7.2 101810 97
2008-11-27 08:13:28 51°14.196 2°55.337 2.5 233 7.2 101810 97
2008-11-27 08:13:33 51°14.205 2°55.327 2.1 24 7.3 101810 97
2008-11-27 08:13:38 51°14.213 2°55.316 4.2 320 7.3 101810 97
2008-11-27 08:13:44 51°14.224 2°55.302 3.6 322 7.3 101810 97
2008-11-27 08:13:48 51°14.231 2°55.292 3.6 323 7.3 101810 97
2008-11-27 08:13:53 51°14.24 2°55.28 4.5 320 7.3 101810 97
2008-11-27 08:13:58 51°14.249 2°55.266 3.5 37 7.3 101810 97
2008-11-27 08:14:04 51°14.26 2°55.248 5.1 285 7.3 101810 98
2008-11-27 08:14:08 51°14.267 2°55.236 5.5 316 7.3 101810 98
2008-11-27 08:14:13 51°14.276 2°55.22 5.7 22 7.3 101800 97
2008-11-27 08:14:18 51°14.285 2°55.204 5.8 33 7.3 101800 97
2008-11-27 08:14:23 51°14.295 2°55.187 6.8 26 7.3 101800 97
2008-11-27 08:14:29 51°14.306 2°55.167 4.4 34 7.3 101800 97
2008-11-27 08:14:33 51°14.314 2°55.154 5.8 23 7.3 101810 98
2008-11-27 08:14:39 51°14.325 2°55.133 5.3 31 7.3 101810 98
2008-11-27 08:14:44 51°14.336 2°55.116 4.9 21 7.3 101800 98
2008-11-27 08:14:49 51°14.345 2°55.099 5.6 317 7.3 101800 98
2008-11-27 08:14:53 51°14.352 2°55.084 6.2 19 7.3 101810 98
2008-11-27 08:14:59 51°14.364 2°55.063 6.8 235 7.3 101810 98
2008-11-27 08:15:04 51°14.374 2°55.046 6.5 23 7.3 101800 97
2008-11-27 08:15:08 51°14.382 2°55.032 9.4 245 7.3 101800 97
2008-11-27 08:15:13 51°14.392 2°55.014 9.8 23 7.3 101800 98
2008-11-27 08:15:19 51°14.406 2°54.994 7.3 242 7.3 101800 98
2008-11-27 08:15:24 51°14.416 2°54.976 8.9 22 7.3 101790 98
2008-11-27 08:15:28 51°14.425 2°54.962 8.2 246 7.3 101790 98
2008-11-27 08:15:33 51°14.436 2°54.945 7.5 248 7.3 101800 98
2008-11-27 08:15:39 51°14.451 2°54.925 8 255 7.3 101800 98
2008-11-27 08:15:44 51°14.463 2°54.909 8.1 259 7.3 101800 98
2008-11-27 08:15:48 51°14.473 2°54.897 6.3 250 7.3 101800 98
2008-11-27 08:15:53 51°14.486 2°54.882 6.9 250 7.3 101800 98
2008-11-27 08:15:58 51°14.499 2°54.867 9 251 7.3 101800 98
2008-11-27 08:16:04 51°14.514 2°54.849 8.7 252 7.3 101800 98
2008-11-27 08:16:08 51°14.525 2°54.836 7.1 249 7.3 101800 98
2008-11-27 08:16:13 51°14.538 2°54.82 7.4 253 7.3 101810 98
2008-11-27 08:16:18 51°14.551 2°54.805 6.9 253 7.3 101810 98
2008-11-27 08:16:24 51°14.567 2°54.787 7 251 7.3 101800 97
2008-11-27 08:16:29 51°14.581 2°54.771 8.1 251 7.3 101800 97
2008-11-27 08:16:33 51°14.592 2°54.758 7.8 254 7.3 101800 99
2008-11-27 08:16:38 51°14.605 2°54.742 7.9 250 7.3 101800 99
2008-11-27 08:16:44 51°14.621 2°54.722 9.6 253 7.3 101800 99
2008-11-27 08:16:49 51°14.634 2°54.706 6.4 246 7.3 101800 99
2008-11-27 08:16:53 51°14.645 2°54.693 6.8 280 7.3 101800 98
2008-11-27 08:16:58 51°14.659 2°54.676 7.5 242 7.3 101800 98
2008-11-27 08:17:03 51°14.672 2°54.659 7.3 243 7.3 101790 98
2008-11-27 08:17:08 51°14.686 2°54.642 6.5 245 7.3 101790 98
2008-11-27 08:17:13 51°14.699 2°54.625 7.1 21 7.3 101790 98
2008-11-27 08:17:19 51°14.715 2°54.605 8.1 247 7.3 101790 98
2008-11-27 08:17:24 51°14.728 2°54.587 8 22 7.3 101790 98
2008-11-27 08:17:28 51°14.739 2°54.573 8.8 248 7.3 101790 98
2008-11-27 08:17:33 51°14.751 2°54.556 8.6 251 7.3 101790 99
2008-11-27 08:17:39 51°14.767 2°54.535 7.9 251 7.3 101790 99
2008-11-27 08:17:44 51°14.78 2°54.517 7.4 249 7.3 101790 99
2008-11-27 08:17:48 51°14.79 2°54.503 9.2 247 7.3 101790 99
2008-11-27 08:17:53 51°14.803 2°54.486 7.5 246 7.3 101790 98
2008-11-27 08:17:59 51°14.819 2°54.465 7 246 7.3 101790 98
2008-11-27 08:18:04 51°14.832 2°54.447 7.3 279 7.3 101790 98
2008-11-27 08:18:08 51°14.842 2°54.433 7.4 249 7.3 101790 98
2008-11-27 08:18:13 51°14.855 2°54.416 7.7 251 7.3 101790 98
2008-11-27 08:18:18 51°14.868 2°54.399 6.9 250 7.3 101790 98
2008-11-27 08:18:24 51°14.884 2°54.378 7.6 283 7.3 101790 99
2008-11-27 08:18:28 51°14.894 2°54.363 7.5 249 7.3 101790 99
2008-11-27 08:18:33 51°14.907 2°54.346 7.5 22 7.3 101790 98
2008-11-27 08:18:39 51°14.922 2°54.325 8.8 252 7.3 101790 98
2008-11-27 08:18:43 51°14.932 2°54.311 9.3 253 7.3 101790 98
2008-11-27 08:18:49 51°14.947 2°54.291 7 255 7.3 101790 98
2008-11-27 08:18:53 51°14.957 2°54.277 6.8 250 7.3 101790 99
2008-11-27 08:18:59 51°14.972 2°54.256 7.4 254 7.3 101790 99
2008-11-27 08:19:03 51°14.983 2°54.242 7.4 251 7.3 101790 98
2008-11-27 08:19:08 51°14.995 2°54.224 8.7 258 7.3 101790 98
2008-11-27 08:19:13 51°15.008 2°54.206 9.4 256 7.3 101790 98
2008-11-27 08:19:19 51°15.023 2°54.184 7.4 254 7.3 101790 98
2008-11-27 08:19:25 51°15.038 2°54.163 7.2 251 7.3 101790 98
2008-11-27 08:19:29 51°15.047 2°54.149 8.7 252 7.3 101790 98
2008-11-27 08:19:33 51°15.057 2°54.135 8.7 253 7.3 101790 99
2008-11-27 08:19:38 51°15.07 2°54.117 7.5 251 7.3 101790 99
2008-11-27 08:19:43 51°15.082 2°54.099 7.4 249 7.3 101790 99
2008-11-27 08:19:49 51°15.097 2°54.078 6.9 251 7.3 101790 99
2008-11-27 08:19:53 51°15.108 2°54.063 8.5 250 7.3 101790 98
2008-11-27 08:19:59 51°15.123 2°54.042 8.5 252 7.3 101790 98
2008-11-27 08:20:03 51°15.133 2°54.029 7.6 249 7.3 101790 99
2008-11-27 08:20:09 51°15.149 2°54.009 8.1 251 7.3 101790 99
2008-11-27 08:20:13 51°15.159 2°53.995 7.1 251 7.3 101790 99
2008-11-27 08:20:17 51°15.169 2°53.981 8.7 252 7.3 101790 99
2008-11-27 08:20:23 51°15.184 2°53.96 8 250 7.3 101780 98
2008-11-27 08:20:29 51°15.199 2°53.94 8.6 251 7.3 101780 98
2008-11-27 08:20:33 51°15.21 2°53.926 8.3 250 7.3 101780 99
2008-11-27 08:20:38 51°15.223 2°53.909 7.5 250 7.3 101780 99
2008-11-27 08:20:44 51°15.238 2°53.888 8.3 253 7.3 101790 98
2008-11-27 08:20:49 51°15.251 2°53.871 8 251 7.3 101790 98
2008-11-27 08:20:53 51°15.261 2°53.857 8.2 250 7.3 101790 99
2008-11-27 08:20:59 51°15.277 2°53.837 8.3 253 7.3 101790 99
2008-11-27 08:21:03 51°15.287 2°53.823 7.5 251 7.3 101790 99
2008-11-27 08:21:09 51°15.302 2°53.803 9.1 253 7.3 101790 99
2008-11-27 08:21:13 51°15.313 2°53.789 8.4 252 7.3 101790 99
2008-11-27 08:21:19 51°15.328 2°53.769 7.4 253 7.3 101790 99
2008-11-27 08:21:23 51°15.339 2°53.756 9.7 257 7.3 101790 99
2008-11-27 08:21:29 51°15.354 2°53.736 8.3 252 7.3 101790 99
2008-11-27 08:21:33 51°15.365 2°53.723 8.2 254 7.3 101790 99
2008-11-27 08:21:39 51°15.381 2°53.703 9.7 256 7.3 101790 99
2008-11-27 08:21:44 51°15.394 2°53.687 8.1 254 7.3 101780 98
2008-11-27 08:21:49 51°15.407 2°53.671 8.4 256 7.3 101780 98
2008-11-27 08:21:53 51°15.417 2°53.658 9 281 7.3 101780 99
2008-11-27 08:21:59 51°15.433 2°53.638 6.8 252 7.3 101780 99
2008-11-27 08:22:04 51°15.446 2°53.621 7.9 252 7.3 101790 99
2008-11-27 08:22:09 51°15.459 2°53.604 8.3 259 7.3 101790 99
2008-11-27 08:22:13 51°15.469 2°53.591 8.6 251 7.3 101790 99
2008-11-27 08:22:19 51°15.485 2°53.571 9.5 253 7.3 101790 99
2008-11-27 08:22:24 51°15.498 2°53.555 7.4 249 7.3 101790 99
2008-11-27 08:22:29 51°15.511 2°53.539 9.2 255 7.3 101790 99
2008-11-27 08:22:33 51°15.521 2°53.526 9.5 252 7.3 101780 99
2008-11-27 08:22:39 51°15.537 2°53.507 8.5 258 7.3 101780 99
2008-11-27 08:22:43 51°15.548 2°53.494 7.8 251 7.3 101780 99
2008-11-27 08:22:49 51°15.564 2°53.476 8.7 257 7.3 101780 99
2008-11-27 08:22:53 51°15.575 2°53.464 7.8 253 7.3 101780 98
2008-11-27 08:22:58 51°15.588 2°53.448 9.7 258 7.3 101780 98
2008-11-27 08:23:04 51°15.605 2°53.43 7.5 259 7.3 101790 98
2008-11-27 08:23:09 51°15.618 2°53.415 8.4 259 7.3 101790 98
2008-11-27 08:23:14 51°15.633 2°53.401 8.4 283 7.3 101790 99
2008-11-27 08:23:19 51°15.646 2°53.386 8.4 258 7.3 101790 99
2008-11-27 08:23:23 51°15.657 2°53.375 8.9 256 7.3 101790 98
2008-11-27 08:23:29 51°15.674 2°53.357 7.1 260 7.3 101790 98
2008-11-27 08:23:33 51°15.686 2°53.346 7.3 257 7.3 101790 99
2008-11-27 08:23:39 51°15.703 2°53.33 9.1 257 7.3 101790 99
2008-11-27 08:23:43 51°15.714 2°53.318 9 256 7.3 101790 99
2008-11-27 08:23:49 51°15.731 2°53.302 9.7 261 7.3 101790 99
2008-11-27 08:23:53 51°15.742 2°53.291 5.6 279 7.3 101790 99
2008-11-27 08:23:59 51°15.76 2°53.274 7.1 258 7.3 101790 99
2008-11-27 08:24:03 51°15.771 2°53.262 6.4 262 7.3 101790 100
2008-11-27 08:24:09 51°15.788 2°53.245 7.7 259 7.3 101790 100
2008-11-27 08:24:13 51°15.8 2°53.234 8 259 7.3 101790 100
2008-11-27 08:24:17 51°15.811 2°53.223 7.8 260 7.3 101790 100
2008-11-27 08:24:23 51°15.828 2°53.206 5.4 262 7.3 101790 99
2008-11-27 08:24:29 51°15.845 2°53.188 7.3 257 7.3 101790 99
2008-11-27 08:24:33 51°15.856 2°53.177 8.7 259 7.3 101780 99
2008-11-27 08:24:39 51°15.873 2°53.16 8.4 261 7.3 101780 99
2008-11-27 08:24:43 51°15.885 2°53.148 8.2 260 7.3 101790 99
2008-11-27 08:24:49 51°15.902 2°53.132 8.3 259 7.3 101790 99
2008-11-27 08:24:53 51°15.913 2°53.12 7.4 259 7.3 101780 99
2008-11-27 08:24:58 51°15.927 2°53.106 8.8 261 7.3 101780 99
2008-11-27 08:25:04 51°15.945 2°53.09 8.7 258 7.3 101780 99
2008-11-27 08:25:09 51°15.959 2°53.075 6.8 256 7.3 101780 99
2008-11-27 08:25:13 51°15.97 2°53.064 7.3 259 7.3 101780 99
2008-11-27 08:25:19 51°15.987 2°53.047 8.9 257 7.3 101780 99
2008-11-27 08:25:24 51°16.002 2°53.033 10.5 258 7.3 101780 100
2008-11-27 08:25:29 51°16.016 2°53.019 6.9 256 7.3 101780 100
2008-11-27 08:25:34 51°16.03 2°53.005 7.4 254 7.3 101790 100
2008-11-27 08:25:39 51°16.044 2°52.991 9 255 7.3 101790 100
2008-11-27 08:25:44 51°16.059 2°52.977 8.9 256 7.3 101790 99
2008-11-27 08:25:49 51°16.073 2°52.963 8.6 260 7.3 101790 99
2008-11-27 08:25:53 51°16.084 2°52.952 7.7 260 7.4 101790 99
2008-11-27 08:25:59 51°16.101 2°52.936 6.7 262 7.4 101790 99
2008-11-27 08:26:04 51°16.116 2°52.922 7.6 259 7.4 101780 100
2008-11-27 08:26:09 51°16.13 2°52.908 7.7 262 7.4 101780 100
2008-11-27 08:26:13 51°16.142 2°52.896 6.9 281 7.4 101780 100
2008-11-27 08:26:19 51°16.159 2°52.88 7.7 257 7.4 101780 100
2008-11-27 08:26:24 51°16.173 2°52.866 7.8 259 7.4 101780 100
2008-11-27 08:26:29 51°16.187 2°52.852 8.1 258 7.4 101780 100
2008-11-27 08:26:34 51°16.202 2°52.838 6.8 261 7.3 101780 100
2008-11-27 08:26:39 51°16.216 2°52.824 9.4 258 7.3 101780 100
2008-11-27 08:26:44 51°16.23 2°52.81 7.1 260 7.3 101780 100
2008-11-27 08:26:49 51°16.244 2°52.795 8.9 257 7.3 101780 100
2008-11-27 08:26:53 51°16.255 2°52.783 9.2 259 7.3 101780 99
2008-11-27 08:26:58 51°16.269 2°52.769 8.4 258 7.3 101780 99
2008-11-27 08:27:04 51°16.286 2°52.752 8.7 258 7.4 101780 100
2008-11-27 08:27:09 51°16.3 2°52.738 8.3 261 7.4 101780 100
2008-11-27 08:27:14 51°16.314 2°52.724 9.4 260 7.3 101780 99
2008-11-27 08:27:19 51°16.328 2°52.711 7 260 7.3 101780 99
2008-11-27 08:27:24 51°16.342 2°52.697 9.7 281 7.3 101780 100
2008-11-27 08:27:29 51°16.356 2°52.683 8.6 260 7.3 101780 100
2008-11-27 08:27:34 51°16.37 2°52.668 8.1 259 7.4 101780 100
2008-11-27 08:27:39 51°16.384 2°52.654 7 257 7.4 101780 100
2008-11-27 08:27:44 51°16.398 2°52.64 10 255 7.4 101780 100
2008-11-27 08:27:50 51°16.415 2°52.624 7.6 262 7.4 101780 100
2008-11-27 08:27:53 51°16.423 2°52.615 9.9 258 7.4 101780 100
2008-11-27 08:27:59 51°16.44 2°52.599 6.7 260 7.4 101780 100
2008-11-27 08:28:03 51°16.452 2°52.587 7.8 261 7.4 101780 100
2008-11-27 08:28:09 51°16.469 2°52.571 9.3 255 7.4 101780 100
2008-11-27 08:28:14 51°16.482 2°52.556 10.9 259 7.4 101780 99
2008-11-27 08:28:17 51°16.491 2°52.548 9.4 262 7.4 101780 99
2008-11-27 08:28:24 51°16.51 2°52.528 5 263 7.3 101770 100
2008-11-27 08:28:29 51°16.524 2°52.514 10.8 255 7.3 101770 100
2008-11-27 08:28:33 51°16.534 2°52.503 9.7 261 7.4 101780 100
2008-11-27 08:28:39 51°16.551 2°52.485 9.2 260 7.4 101780 100
2008-11-27 08:28:44 51°16.564 2°52.472 7.2 262 7.3 101780 100
2008-11-27 08:28:49 51°16.578 2°52.458 9.6 258 7.3 101780 100
2008-11-27 08:28:54 51°16.592 2°52.444 5.2 279 7.4 101770 100
2008-11-27 08:28:59 51°16.606 2°52.43 5.4 262 7.4 101770 100
2008-11-27 08:29:04 51°16.62 2°52.416 7 262 7.4 101770 100
2008-11-27 08:29:09 51°16.633 2°52.402 9.3 261 7.4 101770 100
2008-11-27 08:29:13 51°16.644 2°52.39 6.8 262 7.4 101770 100
2008-11-27 08:29:19 51°16.661 2°52.374 5.8 262 7.4 101770 100
2008-11-27 08:29:24 51°16.674 2°52.359 6.3 262 7.4 101780 100
2008-11-27 08:29:29 51°16.688 2°52.346 6.7 262 7.4 101780 100
2008-11-27 08:29:33 51°16.698 2°52.334 6.9 263 7.4 101770 100
2008-11-27 08:29:39 51°16.714 2°52.317 5.4 260 7.4 101770 100
2008-11-27 08:29:45 51°16.73 2°52.3 7.2 261 7.4 101770 100
2008-11-27 08:29:49 51°16.741 2°52.289 8.9 257 7.4 101770 100
2008-11-27 08:29:53 51°16.751 2°52.278 9.4 259 7.4 101780 99
2008-11-27 08:29:59 51°16.767 2°52.26 7.5 261 7.4 101780 99
2008-11-27 08:30:03 51°16.777 2°52.248 7.8 257 7.4 101770 100
2008-11-27 08:30:09 51°16.793 2°52.231 7.6 260 7.4 101770 100
2008-11-27 08:30:13 51°16.803 2°52.22 8.3 280 7.4 101770 100
2008-11-27 08:30:19 51°16.819 2°52.203 8.6 261 7.4 101770 100
2008-11-27 08:30:24 51°16.833 2°52.189 8.5 262 7.4 101770 99
2008-11-27 08:30:29 51°16.846 2°52.175 8 262 7.4 101770 99
2008-11-27 08:30:34 51°16.859 2°52.16 7.7 263 7.4 101760 99
2008-11-27 08:30:39 51°16.872 2°52.145 7.2 257 7.4 101760 99
2008-11-27 08:30:44 51°16.886 2°52.131 6.5 261 7.4 101770 100
2008-11-27 08:30:49 51°16.899 2°52.116 7.6 258 7.4 101770 100
2008-11-27 08:30:53 51°16.909 2°52.105 8.8 261 7.4 101770 100
2008-11-27 08:30:59 51°16.925 2°52.088 7 261 7.4 101770 100
2008-11-27 08:31:04 51°16.939 2°52.074 8.1 263 7.4 101770 99
2008-11-27 08:31:09 51°16.952 2°52.059 8.9 258 7.4 101770 99
2008-11-27 08:31:13 51°16.963 2°52.047 7.1 258 7.4 101770 100
2008-11-27 08:31:19 51°16.979 2°52.029 7.3 260 7.4 101770 100
2008-11-27 08:31:24 51°16.992 2°52.015 5.1 279 7.4 101760 100
2008-11-27 08:31:29 51°17.006 2°52.001 5.4 263 7.4 101760 100
2008-11-27 08:31:33 51°17.017 2°51.989 6.8 263 7.4 101770 100
2008-11-27 08:31:39 51°17.032 2°51.972 9.7 259 7.4 101770 100
2008-11-27 08:31:44 51°17.046 2°51.957 7.8 259 7.4 101760 99
2008-11-27 08:31:50 51°17.062 2°51.94 7.1 262 7.4 101760 99
2008-11-27 08:31:54 51°17.072 2°51.927 7.8 261 7.4 101760 100
2008-11-27 08:31:59 51°17.086 2°51.913 6.9 259 7.4 101760 100
2008-11-27 08:32:04 51°17.099 2°51.898 6.6 261 7.4 101760 100
2008-11-27 08:32:09 51°17.113 2°51.884 6.8 262 7.4 101760 100
2008-11-27 08:32:14 51°17.126 2°51.87 6.4 262 7.4 101760 100
2008-11-27 08:32:19 51°17.139 2°51.856 7.8 261 7.4 101760 100
2008-11-27 08:32:24 51°17.153 2°51.841 8.3 259 7.4 101760 100
2008-11-27 08:32:29 51°17.166 2°51.827 6.1 263 7.4 101760 100
2008-11-27 08:32:34 51°17.179 2°51.812 4.4 262 7.4 101770 100
2008-11-27 08:32:39 51°17.193 2°51.798 7.7 260 7.4 101770 100
2008-11-27 08:32:44 51°17.206 2°51.782 7.3 261 7.4 101760 100
2008-11-27 08:32:49 51°17.219 2°51.767 6.8 263 7.4 101760 100
2008-11-27 08:32:54 51°17.232 2°51.752 9 280 7.4 101750 100
2008-11-27 08:32:59 51°17.245 2°51.737 7.8 262 7.4 101750 100
2008-11-27 08:33:04 51°17.259 2°51.722 5.3 259 7.4 101750 100
2008-11-27 08:33:09 51°17.272 2°51.707 9.4 258 7.4 101750 100
2008-11-27 08:33:14 51°17.285 2°51.692 7.8 284 7.4 101760 100
2008-11-27 08:33:19 51°17.298 2°51.677 7.3 262 7.4 101760 100
2008-11-27 08:33:24 51°17.311 2°51.662 6.3 262 7.4 101760 100
2008-11-27 08:33:29 51°17.325 2°51.648 7.3 263 7.4 101760 100
2008-11-27 08:33:33 51°17.335 2°51.636 6.7 258 7.4 101760 100
2008-11-27 08:33:39 51°17.352 2°51.62 7.4 263 7.4 101760 100
2008-11-27 08:33:44 51°17.365 2°51.606 6.2 262 7.4 101760 100
2008-11-27 08:33:49 51°17.379 2°51.592 7.8 261 7.4 101760 100
2008-11-27 08:33:54 51°17.392 2°51.578 7.9 261 7.4 101760 100
2008-11-27 08:33:59 51°17.406 2°51.564 10.2 256 7.4 101760 100
2008-11-27 08:34:04 51°17.419 2°51.55 7.6 279 7.4 101760 100
2008-11-27 08:34:09 51°17.432 2°51.536 5.7 267 7.4 101760 100
2008-11-27 08:34:14 51°17.446 2°51.521 8.2 286 7.4 101760 99
2008-11-27 08:34:19 51°17.459 2°51.507 6.5 263 7.4 101760 99
2008-11-27 08:34:24 51°17.472 2°51.493 5.5 263 7.4 101760 100
2008-11-27 08:34:30 51°17.487 2°51.477 6.7 261 7.4 101760 100
2008-11-27 08:34:34 51°17.498 2°51.466 8.8 260 7.4 101770 100
2008-11-27 08:34:39 51°17.511 2°51.451 6.2 261 7.4 101770 100
2008-11-27 08:34:44 51°17.525 2°51.437 7.2 260 7.4 101760 100
2008-11-27 08:34:50 51°17.541 2°51.419 6.6 264 7.4 101760 100
2008-11-27 08:34:54 51°17.552 2°51.408 7.2 261 7.4 101760 100
2008-11-27 08:34:59 51°17.566 2°51.394 7.8 258 7.4 101760 100
2008-11-27 08:35:03 51°17.577 2°51.383 6.9 260 7.4 101760 100
2008-11-27 08:35:09 51°17.592 2°51.364 8.1 258 7.4 101760 100
2008-11-27 08:35:14 51°17.606 2°51.35 8.3 260 7.4 101750 100
2008-11-27 08:35:19 51°17.619 2°51.335 5.3 265 7.4 101750 100
2008-11-27 08:35:24 51°17.632 2°51.32 5.3 264 7.4 101750 100
2008-11-27 08:35:29 51°17.645 2°51.306 9 259 7.4 101750 100
2008-11-27 08:35:34 51°17.658 2°51.29 6.9 262 7.4 101750 100
2008-11-27 08:35:39 51°17.672 2°51.275 8.9 259 7.4 101750 100
2008-11-27 08:35:44 51°17.685 2°51.26 9.7 259 7.4 101760 100
2008-11-27 08:35:49 51°17.698 2°51.245 6.1 262 7.4 101760 100
2008-11-27 08:35:54 51°17.711 2°51.23 6.4 261 7.4 101750 100
2008-11-27 08:35:59 51°17.725 2°51.216 8.3 259 7.4 101750 100
2008-11-27 08:36:04 51°17.738 2°51.201 5.8 263 7.4 101750 100
2008-11-27 08:36:09 51°17.752 2°51.186 5.3 259 7.4 101750 100
2008-11-27 08:36:14 51°17.765 2°51.17 5.4 261 7.4 101750 100
2008-11-27 08:36:19 51°17.778 2°51.155 9 255 7.4 101750 100
2008-11-27 08:36:25 51°17.794 2°51.137 9.5 256 7.4 101750 100
2008-11-27 08:36:29 51°17.805 2°51.125 8 260 7.4 101750 100
2008-11-27 08:36:34 51°17.818 2°51.11 6 263 7.4 101750 100
2008-11-27 08:36:39 51°17.831 2°51.095 8.5 260 7.4 101750 100
2008-11-27 08:36:44 51°17.845 2°51.08 8.9 283 7.5 101740 100
2008-11-27 08:36:49 51°17.859 2°51.066 7.1 260 7.5 101740 100
2008-11-27 08:36:54 51°17.873 2°51.052 7.3 281 7.4 101730 100
2008-11-27 08:36:59 51°17.887 2°51.039 8.4 262 7.4 101730 100
2008-11-27 08:37:04 51°17.901 2°51.025 8.2 264 7.4 101740 100
2008-11-27 08:37:09 51°17.915 2°51.012 5.7 261 7.4 101740 100
2008-11-27 08:37:14 51°17.929 2°50.999 5.1 285 7.4 101740 100
2008-11-27 08:37:19 51°17.943 2°50.986 6.6 260 7.4 101740 100
2008-11-27 08:37:24 51°17.957 2°50.973 7.8 258 7.5 101740 100
2008-11-27 08:37:29 51°17.971 2°50.959 7.5 262 7.5 101740 100
2008-11-27 08:37:34 51°17.985 2°50.946 10.7 255 7.5 101740 100
2008-11-27 08:37:39 51°17.999 2°50.931 8 262 7.5 101740 100
2008-11-27 08:37:44 51°18.013 2°50.918 8.3 263 7.4 101750 100
2008-11-27 08:37:49 51°18.027 2°50.904 5.8 262 7.4 101750 100
2008-11-27 08:37:54 51°18.041 2°50.891 5.3 264 7.4 101740 100
2008-11-27 08:37:59 51°18.055 2°50.878 6.2 260 7.4 101740 100
2008-11-27 08:38:04 51°18.069 2°50.864 6.6 285 7.5 101720 100
2008-11-27 08:38:09 51°18.084 2°50.851 9.3 259 7.5 101720 100
2008-11-27 08:38:14 51°18.097 2°50.836 8.5 261 7.4 101730 100
2008-11-27 08:38:19 51°18.112 2°50.822 10.8 262 7.4 101730 100
2008-11-27 08:38:24 51°18.126 2°50.808 9.4 258 7.4 101730 100
2008-11-27 08:38:29 51°18.14 2°50.793 7.7 262 7.4 101730 100
2008-11-27 08:38:34 51°18.154 2°50.78 6.5 262 7.5 101730 100
2008-11-27 08:38:39 51°18.168 2°50.765 6.2 262 7.5 101730 100
2008-11-27 08:38:44 51°18.182 2°50.753 6.7 262 7.5 101730 100
2008-11-27 08:38:49 51°18.197 2°50.739 5.5 266 7.5 101730 100
2008-11-27 08:38:54 51°18.211 2°50.725 6.9 263 7.4 101730 100
2008-11-27 08:38:59 51°18.225 2°50.712 5.5 261 7.4 101730 100
2008-11-27 08:39:04 51°18.239 2°50.698 5.9 262 7.5 101730 100
2008-11-27 08:39:09 51°18.254 2°50.685 7.1 261 7.5 101730 100
2008-11-27 08:39:14 51°18.268 2°50.671 7.5 261 7.5 101740 100
2008-11-27 08:39:18 51°18.279 2°50.662 5.9 262 7.5 101740 100
2008-11-27 08:39:24 51°18.296 2°50.645 4.7 261 7.5 101730 100
2008-11-27 08:39:29 51°18.311 2°50.632 4.8 261 7.5 101730 100
2008-11-27 08:39:34 51°18.325 2°50.619 6.3 265 7.5 101730 100
2008-11-27 08:39:39 51°18.339 2°50.606 5.7 265 7.5 101730 100
2008-11-27 08:39:44 51°18.354 2°50.594 5.3 264 7.5 101730 100
2008-11-27 08:39:49 51°18.368 2°50.579 8.2 263 7.5 101730 100
2008-11-27 08:39:53 51°18.379 2°50.57 8 285 7.5 101720 100
2008-11-27 08:39:59 51°18.396 2°50.552 5 267 7.5 101720 100
2008-11-27 08:40:03 51°18.407 2°50.543 5.8 263 7.5 101720 100
2008-11-27 08:40:09 51°18.424 2°50.525 5 264 7.5 101720 100
2008-11-27 08:40:14 51°18.438 2°50.513 7.9 285 7.5 101720 100
2008-11-27 08:40:19 51°18.452 2°50.498 6.3 264 7.5 101720 100
2008-11-27 08:40:24 51°18.466 2°50.486 5.1 263 7.5 101720 100
2008-11-27 08:40:29 51°18.479 2°50.471 6 261 7.5 101720 100
2008-11-27 08:40:34 51°18.494 2°50.459 7.1 263 7.5 101720 100
2008-11-27 08:40:39 51°18.507 2°50.444 5.9 260 7.5 101720 100
2008-11-27 08:40:44 51°18.521 2°50.43 7.8 258 7.5 101730 100
2008-11-27 08:40:49 51°18.535 2°50.417 6 263 7.5 101730 100
2008-11-27 08:40:54 51°18.549 2°50.403 5.1 286 7.5 101720 100
2008-11-27 08:40:59 51°18.563 2°50.39 6.1 264 7.5 101720 100
2008-11-27 08:41:04 51°18.577 2°50.377 4.6 280 7.5 101730 100
2008-11-27 08:41:09 51°18.591 2°50.364 7.2 266 7.5 101730 100
2008-11-27 08:41:14 51°18.604 2°50.35 5.7 278 7.5 101730 100
2008-11-27 08:41:19 51°18.618 2°50.337 7 263 7.5 101730 100
2008-11-27 08:41:24 51°18.632 2°50.323 9.6 267 7.5 101730 100
2008-11-27 08:41:30 51°18.649 2°50.308 6.2 263 7.5 101730 100
2008-11-27 08:41:34 51°18.66 2°50.296 7 263 7.5 101730 100
2008-11-27 08:41:39 51°18.674 2°50.283 5.8 263 7.5 101730 100
2008-11-27 08:41:44 51°18.688 2°50.27 6.2 261 7.5 101730 100
2008-11-27 08:41:50 51°18.705 2°50.255 4.8 261 7.5 101730 100
2008-11-27 08:41:54 51°18.717 2°50.245 5.4 263 7.5 101730 100
2008-11-27 08:41:58 51°18.728 2°50.235 5.7 261 7.5 101730 100
2008-11-27 08:42:04 51°18.745 2°50.221 5.4 265 7.5 101730 100
2008-11-27 08:42:09 51°18.76 2°50.209 9.1 269 7.5 101730 100
2008-11-27 08:42:13 51°18.772 2°50.2 7.6 284 7.5 101720 100
2008-11-27 08:42:19 51°18.789 2°50.186 8.2 270 7.5 101720 100
2008-11-27 08:42:24 51°18.804 2°50.174 7.8 269 7.5 101730 100
2008-11-27 08:42:29 51°18.818 2°50.162 7.6 270 7.5 101730 100
2008-11-27 08:42:34 51°18.833 2°50.151 9.2 20 7.5 101730 100
2008-11-27 08:42:39 51°18.848 2°50.139 7.8 32 7.5 101730 100
2008-11-27 08:42:44 51°18.862 2°50.128 8.1 270 7.4 101730 100
2008-11-27 08:42:49 51°18.877 2°50.117 4.8 263 7.4 101730 100
2008-11-27 08:42:53 51°18.889 2°50.108 6.1 269 7.4 101730 100
2008-11-27 08:42:59 51°18.907 2°50.095 5.7 267 7.4 101730 100
2008-11-27 08:43:04 51°18.921 2°50.084 6.2 268 7.4 101710 100
2008-11-27 08:43:09 51°18.936 2°50.073 6.2 267 7.4 101710 100
2008-11-27 08:43:14 51°18.951 2°50.062 6.5 270 7.4 101730 100
2008-11-27 08:43:18 51°18.963 2°50.054 5.5 263 7.4 101730 100
2008-11-27 08:43:25 51°18.984 2°50.039 4.5 267 7.5 101720 100
2008-11-27 08:43:29 51°18.996 2°50.03 6.3 266 7.5 101720 100
2008-11-27 08:43:34 51°19.011 2°50.019 6.2 269 7.5 101730 100
2008-11-27 08:43:39 51°19.025 2°50.007 6.1 267 7.5 101730 100
2008-11-27 08:43:44 51°19.04 2°49.996 8.8 28 7.4 101720 100
2008-11-27 08:43:49 51°19.055 2°49.985 7.3 37 7.4 101720 100
2008-11-27 08:43:54 51°19.07 2°49.974 4.5 279 7.5 101720 100
2008-11-27 08:43:59 51°19.085 2°49.963 5.2 262 7.5 101720 100
2008-11-27 08:44:04 51°19.1 2°49.952 4.6 264 7.4 101720 100
2008-11-27 08:44:09 51°19.114 2°49.94 5.3 267 7.4 101720 100
2008-11-27 08:44:13 51°19.126 2°49.932 8.3 286 7.5 101730 100
2008-11-27 08:44:19 51°19.144 2°49.917 7.1 270 7.5 101730 100
2008-11-27 08:44:24 51°19.159 2°49.907 7.9 27 7.4 101720 100
2008-11-27 08:44:29 51°19.174 2°49.896 7.1 270 7.4 101720 100
2008-11-27 08:44:34 51°19.189 2°49.884 7 269 7.5 101720 100
2008-11-27 08:44:39 51°19.204 2°49.874 5.1 267 7.5 101720 100
2008-11-27 08:44:44 51°19.219 2°49.863 5.9 268 7.4 101720 100
2008-11-27 08:44:49 51°19.234 2°49.853 6.5 269 7.4 101720 100
2008-11-27 08:44:54 51°19.249 2°49.841 5.3 264 7.4 101710 100
2008-11-27 08:44:59 51°19.264 2°49.83 5.5 270 7.4 101710 100
2008-11-27 08:45:03 51°19.276 2°49.821 4.5 284 7.4 101720 100
2008-11-27 08:45:09 51°19.293 2°49.807 4.7 262 7.4 101720 100
2008-11-27 08:45:14 51°19.308 2°49.796 6.8 270 7.5 101730 100
2008-11-27 08:45:19 51°19.323 2°49.785 5.6 265 7.5 101730 100
2008-11-27 08:45:24 51°19.338 2°49.773 5.7 265 7.5 101710 100
2008-11-27 08:45:30 51°19.357 2°49.759 5.4 260 7.5 101710 100
2008-11-27 08:45:34 51°19.368 2°49.75 4.9 263 7.5 101730 100
2008-11-27 08:45:39 51°19.383 2°49.738 7.6 267 7.5 101730 100
2008-11-27 08:45:44 51°19.398 2°49.726 6.8 266 7.5 101720 100
2008-11-27 08:45:49 51°19.413 2°49.714 5.8 266 7.5 101720 100
2008-11-27 08:45:54 51°19.428 2°49.702 7 270 7.5 101710 100
2008-11-27 08:45:58 51°19.44 2°49.693 6.7 270 7.5 101710 100
2008-11-27 08:46:04 51°19.458 2°49.679 4.4 266 7.5 101710 100
2008-11-27 08:46:09 51°19.473 2°49.667 5.3 268 7.5 101710 100
2008-11-27 08:46:14 51°19.487 2°49.655 8.4 268 7.5 101720 100
2008-11-27 08:46:19 51°19.502 2°49.642 5.3 267 7.5 101720 100
2008-11-27 08:46:24 51°19.517 2°49.63 7.7 272 7.5 101730 100
2008-11-27 08:46:29 51°19.531 2°49.617 5.5 263 7.5 101730 100
2008-11-27 08:46:34 51°19.546 2°49.604 5 265 7.5 101710 100
2008-11-27 08:46:39 51°19.561 2°49.593 6.6 269 7.5 101710 100
2008-11-27 08:46:44 51°19.576 2°49.58 6.2 263 7.5 101710 100
2008-11-27 08:46:49 51°19.591 2°49.569 8.1 269 7.5 101710 100
2008-11-27 08:46:54 51°19.606 2°49.556 5.3 280 7.5 101720 100
2008-11-27 08:46:59 51°19.621 2°49.545 4.8 263 7.5 101720 100
2008-11-27 08:47:04 51°19.636 2°49.532 4.5 265 7.5 101720 100
2008-11-27 08:47:09 51°19.651 2°49.521 5.7 270 7.5 101720 100
2008-11-27 08:47:14 51°19.666 2°49.509 5.1 266 7.5 101710 100
2008-11-27 08:47:19 51°19.681 2°49.498 5.5 264 7.5 101710 100
2008-11-27 08:47:24 51°19.696 2°49.486 5 265 7.5 101720 100
2008-11-27 08:47:29 51°19.711 2°49.474 5.4 269 7.5 101720 100
2008-11-27 08:47:34 51°19.726 2°49.463 5.3 265 7.5 101710 100
2008-11-27 08:47:39 51°19.741 2°49.451 4.3 263 7.5 101710 100
2008-11-27 08:47:44 51°19.756 2°49.44 5.5 280 7.5 101720 100
2008-11-27 08:47:49 51°19.771 2°49.428 7.1 267 7.5 101720 100
2008-11-27 08:47:54 51°19.786 2°49.416 5 279 7.5 101710 100
2008-11-27 08:47:59 51°19.801 2°49.404 5.3 265 7.5 101710 100
2008-11-27 08:48:04 51°19.816 2°49.392 5.4 284 7.5 101710 100
2008-11-27 08:48:10 51°19.834 2°49.378 4.5 264 7.5 101710 100
2008-11-27 08:48:14 51°19.846 2°49.368 4.7 267 7.5 101710 100
2008-11-27 08:48:19 51°19.861 2°49.356 5.9 268 7.5 101710 100
2008-11-27 08:48:24 51°19.877 2°49.345 5.3 281 7.5 101710 100
2008-11-27 08:48:30 51°19.895 2°49.33 5.3 264 7.5 101710 100
2008-11-27 08:48:34 51°19.907 2°49.321 4.7 263 7.5 101720 100
2008-11-27 08:48:39 51°19.922 2°49.309 5.2 261 7.5 101720 100
2008-11-27 08:48:44 51°19.937 2°49.297 5.2 268 7.5 101710 100
2008-11-27 08:48:49 51°19.952 2°49.285 6.5 270 7.5 101710 100
2008-11-27 08:48:54 51°19.968 2°49.273 5.2 264 7.5 101700 100
2008-11-27 08:48:59 51°19.983 2°49.261 5.8 266 7.5 101700 100
2008-11-27 08:49:04 51°19.997 2°49.249 5.6 264 7.5 101710 100
2008-11-27 08:49:09 51°20.012 2°49.236 4.2 264 7.5 101710 100
2008-11-27 08:49:14 51°20.027 2°49.225 5.6 264 7.5 101710 100
2008-11-27 08:49:19 51°20.042 2°49.213 5.3 263 7.5 101710 100
2008-11-27 08:49:24 51°20.057 2°49.202 5.7 265 7.5 101720 100
2008-11-27 08:49:29 51°20.071 2°49.189 4.4 265 7.5 101720 100
2008-11-27 08:49:34 51°20.086 2°49.178 5.2 267 7.5 101710 100
2008-11-27 08:49:39 51°20.101 2°49.165 4.5 264 7.5 101710 100
2008-11-27 08:49:44 51°20.117 2°49.154 4.9 254 7.5 101710 100
2008-11-27 08:49:49 51°20.131 2°49.142 5.2 264 7.5 101710 100
2008-11-27 08:49:54 51°20.146 2°49.131 4.5 263 7.5 101710 100
2008-11-27 08:49:59 51°20.161 2°49.119 6.8 260 7.5 101710 100
2008-11-27 08:50:05 51°20.178 2°49.105 4.8 264 7.5 101720 100
2008-11-27 08:50:09 51°20.19 2°49.095 3.6 264 7.5 101720 100
2008-11-27 08:50:14 51°20.205 2°49.083 4 262 7.5 101710 100
2008-11-27 08:50:19 51°20.22 2°49.071 5.9 262 7.5 101710 100
2008-11-27 08:50:24 51°20.234 2°49.058 6.5 282 7.5 101720 100
2008-11-27 08:50:29 51°20.249 2°49.047 5.6 258 7.5 101720 100
2008-11-27 08:50:34 51°20.264 2°49.034 6.7 258 7.5 101720 100
2008-11-27 08:50:39 51°20.279 2°49.022 5.7 253 7.5 101720 100
2008-11-27 08:50:44 51°20.294 2°49.01 8.6 256 7.5 101710 100
2008-11-27 08:50:50 51°20.311 2°48.996 6 256 7.5 101710 100
2008-11-27 08:50:54 51°20.323 2°48.987 7 281 7.5 101720 100
2008-11-27 08:50:59 51°20.338 2°48.974 7.5 256 7.5 101720 100
2008-11-27 08:51:04 51°20.353 2°48.961 8.5 257 7.5 101720 100
2008-11-27 08:51:10 51°20.371 2°48.948 6.7 255 7.5 101720 100
2008-11-27 08:51:14 51°20.382 2°48.938 6 280 7.5 101730 100
2008-11-27 08:51:19 51°20.397 2°48.927 8.1 259 7.5 101730 100
2008-11-27 08:51:24 51°20.412 2°48.915 7.4 259 7.5 101730 100
2008-11-27 08:51:29 51°20.427 2°48.903 6.8 259 7.5 101730 100
2008-11-27 08:51:34 51°20.442 2°48.892 7.4 253 7.5 101720 100
2008-11-27 08:51:39 51°20.457 2°48.879 6.5 253 7.5 101720 100
2008-11-27 08:51:44 51°20.472 2°48.867 5.5 286 7.5 101740 100
2008-11-27 08:51:49 51°20.486 2°48.854 6.2 253 7.5 101740 100
2008-11-27 08:51:54 51°20.501 2°48.843 6 254 7.5 101730 100
2008-11-27 08:51:59 51°20.516 2°48.83 5.7 254 7.5 101730 100
2008-11-27 08:52:04 51°20.531 2°48.819 7.2 254 7.5 101730 100
2008-11-27 08:52:09 51°20.546 2°48.806 6 248 7.5 101730 100
2008-11-27 08:52:14 51°20.561 2°48.794 4.9 246 7.5 101740 100
2008-11-27 08:52:19 51°20.575 2°48.783 7 250 7.5 101740 100
2008-11-27 08:52:24 51°20.59 2°48.771 9.2 254 7.6 101740 100
2008-11-27 08:52:29 51°20.604 2°48.758 6.6 252 7.6 101740 100
2008-11-27 08:52:34 51°20.619 2°48.746 7.6 244 7.6 101740 100
2008-11-27 08:52:39 51°20.633 2°48.733 7.9 257 7.6 101740 100
2008-11-27 08:52:44 51°20.648 2°48.721 7.9 255 7.6 101740 100
2008-11-27 08:52:49 51°20.663 2°48.709 6.2 249 7.6 101740 100
2008-11-27 08:52:54 51°20.678 2°48.698 5.7 249 7.6 101740 100
2008-11-27 08:52:59 51°20.692 2°48.685 7.6 247 7.6 101740 100
2008-11-27 08:53:04 51°20.707 2°48.673 8 249 7.6 101740 100
2008-11-27 08:53:09 51°20.721 2°48.661 9 255 7.6 101740 100
2008-11-27 08:53:14 51°20.736 2°48.649 9.3 254 7.6 101750 100
2008-11-27 08:53:19 51°20.751 2°48.637 5.8 246 7.6 101750 100
2008-11-27 08:53:24 51°20.765 2°48.624 7.8 248 7.6 101750 100
2008-11-27 08:53:29 51°20.78 2°48.612 6.7 247 7.6 101750 100
2008-11-27 08:53:34 51°20.794 2°48.6 7.2 250 7.6 101740 100
2008-11-27 08:53:39 51°20.809 2°48.587 7.7 253 7.6 101740 100
2008-11-27 08:53:44 51°20.824 2°48.575 9.1 250 7.6 101740 100
2008-11-27 08:53:49 51°20.838 2°48.563 6 250 7.6 101740 100
2008-11-27 08:53:54 51°20.853 2°48.551 6.2 248 7.6 101740 100
2008-11-27 08:53:59 51°20.868 2°48.539 7.4 251 7.6 101740 100
2008-11-27 08:54:04 51°20.883 2°48.527 8.3 249 7.6 101740 100
2008-11-27 08:54:09 51°20.897 2°48.516 7.2 253 7.6 101740 100
2008-11-27 08:54:14 51°20.912 2°48.504 6.3 245 7.6 101740 100
2008-11-27 08:54:19 51°20.927 2°48.492 8.1 249 7.6 101740 100
2008-11-27 08:54:24 51°20.941 2°48.48 7 20 7.6 101730 100
2008-11-27 08:54:29 51°20.956 2°48.468 7.3 243 7.6 101730 100
2008-11-27 08:54:34 51°20.97 2°48.456 7.8 19 7.6 101730 100
2008-11-27 08:54:39 51°20.985 2°48.445 6.8 251 7.6 101730 100
2008-11-27 08:54:44 51°21 2°48.433 7.5 250 7.6 101730 100
2008-11-27 08:54:50 51°21.018 2°48.419 6.5 245 7.6 101730 100
2008-11-27 08:54:54 51°21.029 2°48.41 7.4 23 7.6 101750 100
2008-11-27 08:54:59 51°21.044 2°48.398 6.5 248 7.6 101750 100
2008-11-27 08:55:04 51°21.059 2°48.386 6.4 248 7.6 101740 100
2008-11-27 08:55:09 51°21.074 2°48.375 7.5 249 7.6 101740 100
2008-11-27 08:55:14 51°21.088 2°48.362 8.1 22 7.6 101740 100
2008-11-27 08:55:19 51°21.103 2°48.35 7.7 247 7.6 101740 100
2008-11-27 08:55:24 51°21.118 2°48.338 6.1 249 7.6 101750 100
2008-11-27 08:55:29 51°21.132 2°48.325 5.7 251 7.6 101750 100
2008-11-27 08:55:34 51°21.147 2°48.314 7.3 19 7.6 101730 100
2008-11-27 08:55:39 51°21.162 2°48.301 5.9 245 7.6 101730 100
2008-11-27 08:55:44 51°21.177 2°48.29 5.8 26 7.6 101730 100
2008-11-27 08:55:49 51°21.191 2°48.277 5.9 247 7.6 101730 100
2008-11-27 08:55:54 51°21.206 2°48.267 5.9 21 7.6 101740 100
2008-11-27 08:55:59 51°21.221 2°48.254 6.3 245 7.6 101740 100
2008-11-27 08:56:04 51°21.237 2°48.244 6.1 250 7.6 101740 100
2008-11-27 08:56:09 51°21.252 2°48.232 5.5 245 7.6 101740 100
2008-11-27 08:56:14 51°21.267 2°48.221 8.2 250 7.6 101740 100
2008-11-27 08:56:19 51°21.281 2°48.208 9.2 253 7.6 101740 100
2008-11-27 08:56:24 51°21.296 2°48.197 8.7 254 7.6 101730 100
2008-11-27 08:56:29 51°21.311 2°48.185 8.2 251 7.6 101730 100
2008-11-27 08:56:34 51°21.326 2°48.174 6.6 254 7.6 101750 100
2008-11-27 08:56:39 51°21.341 2°48.163 6.7 248 7.6 101750 100
2008-11-27 08:56:44 51°21.356 2°48.152 6 250 7.6 101730 100
2008-11-27 08:56:49 51°21.371 2°48.14 6.2 248 7.6 101730 100
2008-11-27 08:56:54 51°21.386 2°48.129 6.5 246 7.6 101730 100
2008-11-27 08:56:59 51°21.401 2°48.117 6.7 245 7.6 101730 100
2008-11-27 08:57:04 51°21.416 2°48.106 6.3 244 7.6 101750 100
2008-11-27 08:57:10 51°21.434 2°48.093 8.9 252 7.6 101750 100
2008-11-27 08:57:14 51°21.446 2°48.084 8.2 252 7.6 101740 100
2008-11-27 08:57:19 51°21.461 2°48.072 8.4 248 7.6 101740 100
2008-11-27 08:57:24 51°21.476 2°48.061 8.8 20 7.6 101740 100
2008-11-27 08:57:29 51°21.491 2°48.049 6.8 248 7.6 101740 100
2008-11-27 08:57:34 51°21.506 2°48.038 9.9 253 7.7 101750 100
2008-11-27 08:57:39 51°21.521 2°48.026 8.9 253 7.7 101750 100
2008-11-27 08:57:44 51°21.535 2°48.014 7.3 252 7.7 101740 100
2008-11-27 08:57:49 51°21.55 2°48.003 8.7 252 7.7 101740 100
2008-11-27 08:57:54 51°21.565 2°47.991 9.3 255 7.7 101730 100
2008-11-27 08:57:59 51°21.581 2°47.979 6.3 252 7.7 101730 100
2008-11-27 08:58:04 51°21.596 2°47.967 7.7 251 7.7 101730 100
2008-11-27 08:58:09 51°21.611 2°47.955 6.8 246 7.7 101730 100
2008-11-27 08:58:14 51°21.626 2°47.944 6 20 7.7 101740 100
2008-11-27 08:58:19 51°21.641 2°47.933 7.6 250 7.7 101740 100
2008-11-27 08:58:24 51°21.656 2°47.921 8.4 251 7.7 101730 100
2008-11-27 08:58:29 51°21.671 2°47.91 6.8 248 7.7 101730 100
2008-11-27 08:58:34 51°21.686 2°47.898 8.1 251 7.7 101730 100
2008-11-27 08:58:39 51°21.701 2°47.886 7.7 252 7.7 101730 100
2008-11-27 08:58:44 51°21.717 2°47.875 6.9 250 7.7 101740 100
2008-11-27 08:58:49 51°21.732 2°47.864 6.8 247 7.7 101740 100
2008-11-27 08:58:54 51°21.747 2°47.852 9.2 253 7.7 101730 100
2008-11-27 08:58:59 51°21.762 2°47.841 8.4 249 7.7 101730 100
2008-11-27 08:59:04 51°21.777 2°47.829 7 249 7.7 101740 100
2008-11-27 08:59:09 51°21.791 2°47.817 8.9 248 7.7 101740 100
2008-11-27 08:59:14 51°21.807 2°47.806 7.9 20 7.7 101730 100
2008-11-27 08:59:19 51°21.822 2°47.794 7.6 254 7.7 101730 100
2008-11-27 08:59:24 51°21.836 2°47.782 7.3 254 7.7 101730 100
2008-11-27 08:59:30 51°21.854 2°47.769 8.3 248 7.7 101730 100
2008-11-27 08:59:34 51°21.866 2°47.76 8 252 7.7 101730 100
2008-11-27 08:59:39 51°21.881 2°47.748 10.2 255 7.7 101730 100
2008-11-27 08:59:44 51°21.896 2°47.737 8 254 7.7 101740 100
2008-11-27 08:59:49 51°21.911 2°47.726 7.5 253 7.7 101740 100
2008-11-27 08:59:54 51°21.926 2°47.715 8.7 257 7.7 101740 100
2008-11-27 08:59:59 51°21.941 2°47.704 9.4 251 7.7 101740 100
2008-11-27 09:00:04 51°21.956 2°47.692 9.1 252 7.7 101740 100
2008-11-27 09:00:09 51°21.971 2°47.681 6.8 251 7.7 101740 100
2008-11-27 09:00:14 51°21.986 2°47.669 6.1 23 7.7 101730 100
2008-11-27 09:00:19 51°22.001 2°47.659 6.9 246 7.7 101730 100
2008-11-27 09:00:24 51°22.016 2°47.647 6.8 252 7.7 101740 100
2008-11-27 09:00:29 51°22.031 2°47.636 7.7 253 7.7 101740 100
2008-11-27 09:00:34 51°22.046 2°47.624 7.1 20 7.7 101740 100
2008-11-27 09:00:39 51°22.061 2°47.612 7.6 254 7.7 101740 100
2008-11-27 09:00:44 51°22.076 2°47.601 9.1 256 7.7 101730 100
2008-11-27 09:00:49 51°22.09 2°47.587 7.5 251 7.7 101730 100
2008-11-27 09:00:54 51°22.106 2°47.577 8.7 254 7.7 101730 100
2008-11-27 09:00:59 51°22.12 2°47.564 8.2 253 7.7 101730 100
2008-11-27 09:01:04 51°22.135 2°47.553 8.3 254 7.7 101740 100
2008-11-27 09:01:09 51°22.15 2°47.541 7.8 252 7.7 101740 100
2008-11-27 09:01:14 51°22.165 2°47.53 8.8 253 7.7 101730 100
2008-11-27 09:01:19 51°22.18 2°47.518 8.8 253 7.7 101730 100
2008-11-27 09:01:24 51°22.195 2°47.507 8.4 252 7.7 101730 100
2008-11-27 09:01:29 51°22.209 2°47.495 7.4 253 7.7 101730 100
2008-11-27 09:01:34 51°22.225 2°47.485 6.5 250 7.7 101720 100
2008-11-27 09:01:39 51°22.239 2°47.472 8.8 255 7.7 101720 100
2008-11-27 09:01:44 51°22.254 2°47.462 6.9 257 7.7 101740 100
2008-11-27 09:01:49 51°22.269 2°47.45 8.4 252 7.7 101740 100
2008-11-27 09:01:54 51°22.283 2°47.437 7.4 254 7.7 101710 100
2008-11-27 09:01:59 51°22.298 2°47.426 9.6 253 7.7 101710 100
2008-11-27 09:02:04 51°22.313 2°47.414 9.2 254 7.7 101730 100
2008-11-27 09:02:09 51°22.327 2°47.402 7.9 258 7.7 101730 100
2008-11-27 09:02:14 51°22.342 2°47.39 8.4 260 7.7 101730 100
2008-11-27 09:02:19 51°22.357 2°47.378 8.7 254 7.7 101730 100
2008-11-27 09:02:24 51°22.372 2°47.367 7.2 253 7.7 101720 100
2008-11-27 09:02:29 51°22.386 2°47.354 8.1 258 7.7 101720 100
2008-11-27 09:02:34 51°22.401 2°47.343 6.7 257 7.7 101730 100
2008-11-27 09:02:39 51°22.416 2°47.33 8.2 260 7.7 101730 100
2008-11-27 09:02:44 51°22.43 2°47.318 8.2 254 7.7 101720 100
2008-11-27 09:02:49 51°22.445 2°47.305 7.4 259 7.7 101720 100
2008-11-27 09:02:54 51°22.46 2°47.295 9.2 259 7.7 101720 100
2008-11-27 09:02:59 51°22.474 2°47.282 9.2 255 7.7 101720 100
2008-11-27 09:03:04 51°22.489 2°47.27 7.7 260 7.7 101730 100
2008-11-27 09:03:09 51°22.503 2°47.257 7.4 254 7.7 101730 100
2008-11-27 09:03:14 51°22.518 2°47.247 8.8 255 7.7 101720 100
2008-11-27 09:03:19 51°22.532 2°47.234 8.5 257 7.7 101720 100
2008-11-27 09:03:24 51°22.547 2°47.224 8.5 259 7.7 101730 100
2008-11-27 09:03:29 51°22.561 2°47.212 10.3 259 7.7 101730 100
2008-11-27 09:03:34 51°22.576 2°47.201 9.3 260 7.7 101720 100
2008-11-27 09:03:39 51°22.59 2°47.19 7.9 257 7.7 101720 100
2008-11-27 09:03:45 51°22.608 2°47.175 6.7 259 7.8 101730 100
2008-11-27 09:03:49 51°22.62 2°47.166 9.1 259 7.8 101730 100
2008-11-27 09:03:54 51°22.634 2°47.155 8.2 257 7.7 101730 100
2008-11-27 09:03:59 51°22.649 2°47.143 8.4 256 7.7 101730 100
2008-11-27 09:04:04 51°22.663 2°47.132 8.1 256 7.7 101730 100
2008-11-27 09:04:09 51°22.678 2°47.12 7.3 260 7.7 101730 100
2008-11-27 09:04:14 51°22.693 2°47.109 10.3 257 7.7 101730 100
2008-11-27 09:04:19 51°22.708 2°47.098 7.6 256 7.7 101730 100
2008-11-27 09:04:24 51°22.722 2°47.086 7.6 258 7.7 101720 100
2008-11-27 09:04:30 51°22.74 2°47.072 7.8 256 7.7 101720 100
2008-11-27 09:04:34 51°22.752 2°47.063 8.1 256 7.7 101730 100
2008-11-27 09:04:39 51°22.767 2°47.051 7.3 255 7.7 101730 100
2008-11-27 09:04:44 51°22.781 2°47.039 10.5 258 7.7 101720 100
2008-11-27 09:04:49 51°22.795 2°47.028 6.9 261 7.7 101720 100
2008-11-27 09:04:54 51°22.81 2°47.015 9.7 258 7.8 101720 100
2008-11-27 09:04:59 51°22.825 2°47.005 7.8 251 7.8 101720 100
2008-11-27 09:05:04 51°22.84 2°46.993 7 19 7.8 101720 100
2008-11-27 09:05:09 51°22.855 2°46.982 8.6 255 7.8 101720 100
2008-11-27 09:05:14 51°22.869 2°46.971 10.5 252 7.8 101720 100
2008-11-27 09:05:19 51°22.884 2°46.959 7.9 255 7.8 101720 100
2008-11-27 09:05:24 51°22.899 2°46.948 7.6 252 7.8 101720 100
2008-11-27 09:05:29 51°22.914 2°46.936 8.3 257 7.8 101720 100
2008-11-27 09:05:34 51°22.929 2°46.925 8.3 257 7.8 101700 100
2008-11-27 09:05:39 51°22.944 2°46.914 10 258 7.8 101700 100
2008-11-27 09:05:44 51°22.959 2°46.903 8.6 261 7.8 101720 100
2008-11-27 09:05:49 51°22.974 2°46.892 8.7 254 7.8 101720 100
2008-11-27 09:05:54 51°22.988 2°46.881 6.2 253 7.8 101720 100
2008-11-27 09:05:59 51°23.003 2°46.869 8.6 257 7.8 101720 100
2008-11-27 09:06:04 51°23.018 2°46.858 7.9 257 7.8 101710 100
2008-11-27 09:06:09 51°23.033 2°46.846 7.4 260 7.8 101710 100
2008-11-27 09:06:14 51°23.048 2°46.834 6.4 254 7.8 101720 100
2008-11-27 09:06:19 51°23.062 2°46.824 8 250 7.8 101720 100
2008-11-27 09:06:24 51°23.078 2°46.811 6.6 253 7.8 101720 100
2008-11-27 09:06:30 51°23.096 2°46.798 8.8 254 7.8 101720 100
2008-11-27 09:06:34 51°23.107 2°46.79 7.8 254 7.8 101720 100
2008-11-27 09:06:39 51°23.122 2°46.778 8.4 256 7.8 101720 100
2008-11-27 09:06:44 51°23.137 2°46.766 9.7 256 7.8 101720 100
2008-11-27 09:06:49 51°23.151 2°46.755 8.7 257 7.8 101720 100
2008-11-27 09:06:54 51°23.166 2°46.743 8.7 256 7.8 101710 100
2008-11-27 09:06:59 51°23.181 2°46.732 10.2 257 7.8 101710 100
2008-11-27 09:07:04 51°23.196 2°46.721 10.4 258 7.8 101710 100
2008-11-27 09:07:09 51°23.211 2°46.709 9.2 258 7.8 101710 100
2008-11-27 09:07:14 51°23.226 2°46.697 11 258 7.8 101710 100
2008-11-27 09:07:19 51°23.241 2°46.686 7.9 260 7.8 101710 100
2008-11-27 09:07:24 51°23.256 2°46.675 6.9 259 7.8 101710 100
2008-11-27 09:07:29 51°23.271 2°46.663 7.9 256 7.8 101710 100
2008-11-27 09:07:34 51°23.286 2°46.651 9.6 259 7.8 101720 100
2008-11-27 09:07:39 51°23.3 2°46.639 6.2 251 7.8 101720 100
2008-11-27 09:07:44 51°23.316 2°46.628 6.6 253 7.8 101710 100
2008-11-27 09:07:49 51°23.33 2°46.617 10.5 255 7.8 101710 100
2008-11-27 09:07:54 51°23.345 2°46.604 11.4 256 7.8 101700 100
2008-11-27 09:07:59 51°23.36 2°46.593 10 257 7.8 101700 100
2008-11-27 09:08:04 51°23.375 2°46.582 7.9 253 7.8 101710 100
2008-11-27 09:08:09 51°23.389 2°46.569 10 256 7.8 101710 100
2008-11-27 09:08:14 51°23.405 2°46.559 8.6 254 7.8 101710 100
2008-11-27 09:08:19 51°23.419 2°46.545 9.1 258 7.8 101710 100
2008-11-27 09:08:24 51°23.434 2°46.536 7.2 261 7.8 101700 100
2008-11-27 09:08:30 51°23.451 2°46.52 8.9 260 7.8 101700 100
2008-11-27 09:08:34 51°23.463 2°46.512 9.1 258 7.8 101710 100
2008-11-27 09:08:39 51°23.478 2°46.5 9 259 7.8 101710 100
2008-11-27 09:08:44 51°23.493 2°46.489 7.3 256 7.8 101710 100
2008-11-27 09:08:49 51°23.508 2°46.477 10.4 260 7.8 101710 100
2008-11-27 09:08:54 51°23.522 2°46.466 7.5 257 7.8 101720 100
2008-11-27 09:08:59 51°23.537 2°46.455 11.2 259 7.8 101720 100
2008-11-27 09:09:04 51°23.552 2°46.442 10.5 259 7.8 101710 100
2008-11-27 09:09:09 51°23.567 2°46.431 9 257 7.8 101710 100
2008-11-27 09:09:14 51°23.582 2°46.42 9.1 260 7.8 101710 100
2008-11-27 09:09:19 51°23.597 2°46.407 6.7 261 7.8 101710 100
2008-11-27 09:09:24 51°23.612 2°46.397 6.6 263 7.8 101700 100
2008-11-27 09:09:29 51°23.626 2°46.385 9.1 259 7.8 101700 100
2008-11-27 09:09:34 51°23.642 2°46.374 6.5 259 7.8 101700 100
2008-11-27 09:09:39 51°23.656 2°46.36 8.3 255 7.8 101700 100
2008-11-27 09:09:44 51°23.671 2°46.35 7.1 252 7.8 101710 100
2008-11-27 09:09:49 51°23.686 2°46.338 9.2 257 7.8 101710 100
2008-11-27 09:09:54 51°23.701 2°46.326 8.2 256 7.8 101710 100
2008-11-27 09:09:59 51°23.715 2°46.314 8.9 257 7.8 101710 100
2008-11-27 09:10:04 51°23.73 2°46.303 7.5 261 7.8 101700 100
2008-11-27 09:10:09 51°23.745 2°46.291 6.8 259 7.8 101700 100
2008-11-27 09:10:14 51°23.76 2°46.28 9.2 260 7.8 101700 100
2008-11-27 09:10:19 51°23.775 2°46.267 8.9 260 7.8 101700 100
2008-11-27 09:10:24 51°23.79 2°46.257 7.3 260 7.8 101700 100
2008-11-27 09:10:29 51°23.805 2°46.244 6.8 256 7.8 101700 100
2008-11-27 09:10:34 51°23.82 2°46.234 7.6 257 7.8 101720 100
2008-11-27 09:10:39 51°23.835 2°46.222 9 257 7.8 101720 100
2008-11-27 09:10:44 51°23.849 2°46.211 7.2 254 7.8 101700 100
2008-11-27 09:10:49 51°23.864 2°46.199 9.4 260 7.8 101700 100
2008-11-27 09:10:54 51°23.879 2°46.187 10.7 260 7.8 101710 100
2008-11-27 09:10:59 51°23.894 2°46.176 10.5 260 7.8 101710 100
2008-11-27 09:11:04 51°23.909 2°46.163 10.1 260 7.8 101700 100
2008-11-27 09:11:09 51°23.924 2°46.153 7.3 253 7.8 101700 100
2008-11-27 09:11:14 51°23.939 2°46.14 8.8 259 7.8 101700 100
2008-11-27 09:11:19 51°23.955 2°46.129 6.6 260 7.8 101700 100
2008-11-27 09:11:24 51°23.97 2°46.117 7.2 261 7.8 101700 100
2008-11-27 09:11:29 51°23.984 2°46.105 6.8 260 7.8 101700 100
2008-11-27 09:11:34 51°23.999 2°46.094 9.4 257 7.8 101710 100
2008-11-27 09:11:39 51°24.014 2°46.082 8.5 261 7.8 101710 100
2008-11-27 09:11:44 51°24.029 2°46.072 5.8 260 7.9 101700 100
2008-11-27 09:11:49 51°24.044 2°46.061 6.6 259 7.9 101700 100
2008-11-27 09:11:54 51°24.06 2°46.052 6.5 257 7.8 101710 100
2008-11-27 09:11:59 51°24.075 2°46.042 6.2 256 7.8 101710 100
2008-11-27 09:12:04 51°24.09 2°46.032 10.5 259 7.9 101700 100
2008-11-27 09:12:09 51°24.104 2°46.02 7.3 262 7.9 101700 100
2008-11-27 09:12:14 51°24.119 2°46.01 7.4 263 7.9 101700 100
2008-11-27 09:12:19 51°24.134 2°46 7.4 261 7.9 101700 100
2008-11-27 09:12:24 51°24.149 2°45.991 8.7 261 7.9 101710 100
2008-11-27 09:12:29 51°24.165 2°45.981 6.9 260 7.9 101710 100
2008-11-27 09:12:34 51°24.18 2°45.971 6.4 262 7.9 101700 100
2008-11-27 09:12:39 51°24.195 2°45.962 5.2 263 7.9 101700 100
2008-11-27 09:12:44 51°24.211 2°45.953 5.4 263 7.9 101690 100
2008-11-27 09:12:49 51°24.226 2°45.943 7.7 255 7.9 101690 100
2008-11-27 09:12:54 51°24.242 2°45.934 8.2 258 7.8 101700 100
2008-11-27 09:12:59 51°24.257 2°45.925 9 261 7.8 101700 100
2008-11-27 09:13:04 51°24.272 2°45.915 7.2 261 7.9 101710 100
2008-11-27 09:13:09 51°24.287 2°45.906 8.1 260 7.9 101710 100
2008-11-27 09:13:14 51°24.302 2°45.896 7.2 258 7.8 101700 100
2008-11-27 09:13:19 51°24.318 2°45.887 5.1 261 7.8 101700 100
2008-11-27 09:13:24 51°24.333 2°45.877 8.2 261 7.9 101710 100
2008-11-27 09:13:30 51°24.352 2°45.867 5 263 7.9 101710 100
2008-11-27 09:13:34 51°24.364 2°45.858 7.4 262 7.9 101700 100
2008-11-27 09:13:39 51°24.379 2°45.85 7.3 258 7.9 101700 100
2008-11-27 09:13:44 51°24.394 2°45.84 5.9 262 7.9 101700 100
2008-11-27 09:13:49 51°24.41 2°45.832 6.2 262 7.9 101700 100
2008-11-27 09:13:54 51°24.425 2°45.822 5.8 263 7.9 101700 100
2008-11-27 09:13:59 51°24.441 2°45.813 6.8 262 7.9 101700 100
2008-11-27 09:14:04 51°24.456 2°45.804 6.6 255 7.9 101700 100
2008-11-27 09:14:09 51°24.472 2°45.794 6.8 261 7.9 101700 100
2008-11-27 09:14:14 51°24.487 2°45.786 6.3 262 7.9 101710 100
2008-11-27 09:14:19 51°24.502 2°45.775 5.6 262 7.9 101710 100
2008-11-27 09:14:24 51°24.518 2°45.768 7.1 260 7.9 101700 100
2008-11-27 09:14:29 51°24.533 2°45.756 5 262 7.9 101700 100
2008-11-27 09:14:34 51°24.549 2°45.747 5.4 262 7.9 101700 100
2008-11-27 09:14:39 51°24.564 2°45.737 4.9 262 7.9 101700 100
2008-11-27 09:14:44 51°24.579 2°45.73 5 262 7.9 101700 100
2008-11-27 09:14:49 51°24.594 2°45.719 4.5 263 7.9 101700 100
2008-11-27 09:14:54 51°24.609 2°45.71 5.7 263 7.9 101690 100
2008-11-27 09:14:59 51°24.625 2°45.7 6.3 261 7.9 101690 100
2008-11-27 09:15:04 51°24.64 2°45.691 4.5 264 7.9 101700 100
2008-11-27 09:15:09 51°24.655 2°45.683 7.8 257 7.9 101700 100
2008-11-27 09:15:14 51°24.671 2°45.674 5.4 255 7.9 101700 100
2008-11-27 09:15:19 51°24.686 2°45.665 6.1 259 7.9 101700 100
2008-11-27 09:15:24 51°24.701 2°45.655 6.7 257 7.9 101700 100
2008-11-27 09:15:29 51°24.717 2°45.646 8.4 251 7.9 101700 100
2008-11-27 09:15:34 51°24.732 2°45.637 9.2 260 7.9 101700 100
2008-11-27 09:15:39 51°24.747 2°45.628 7.5 260 7.9 101700 100
2008-11-27 09:15:44 51°24.763 2°45.618 9.2 261 7.9 101710 100
2008-11-27 09:15:49 51°24.778 2°45.609 8.1 260 7.9 101710 100
2008-11-27 09:15:54 51°24.793 2°45.599 6.9 260 7.9 101700 100
2008-11-27 09:15:59 51°24.809 2°45.59 5.2 262 7.9 101700 100
2008-11-27 09:16:04 51°24.824 2°45.58 7.3 261 7.9 101700 100
2008-11-27 09:16:09 51°24.839 2°45.572 7.6 260 7.9 101700 100
2008-11-27 09:16:14 51°24.855 2°45.561 8.4 260 7.9 101700 100
2008-11-27 09:16:19 51°24.869 2°45.551 5.2 260 7.9 101700 100
2008-11-27 09:16:24 51°24.885 2°45.542 7.9 255 7.9 101700 100
2008-11-27 09:16:29 51°24.9 2°45.533 7.8 258 7.9 101700 100
2008-11-27 09:16:34 51°24.916 2°45.524 7.1 261 7.9 101700 100
2008-11-27 09:16:39 51°24.932 2°45.514 7.5 258 7.9 101700 100
2008-11-27 09:16:44 51°24.947 2°45.505 6.6 259 7.9 101700 100
2008-11-27 09:16:49 51°24.961 2°45.494 8.1 255 7.9 101700 100
2008-11-27 09:16:54 51°24.977 2°45.486 7.9 258 7.9 101700 100
2008-11-27 09:16:59 51°24.992 2°45.474 7.4 253 7.9 101700 100
2008-11-27 09:17:04 51°25.007 2°45.464 8.6 256 7.9 101700 100
2008-11-27 09:17:09 51°25.022 2°45.452 10.4 260 7.9 101700 100
2008-11-27 09:17:14 51°25.037 2°45.442 6.9 258 7.9 101690 100
2008-11-27 09:17:19 51°25.051 2°45.429 7.2 258 7.9 101690 100
2008-11-27 09:17:24 51°25.066 2°45.418 7.5 261 7.9 101690 100
2008-11-27 09:17:30 51°25.084 2°45.403 9 256 7.9 101690 100
2008-11-27 09:17:34 51°25.096 2°45.394 9 259 7.9 101690 100
2008-11-27 09:17:39 51°25.111 2°45.383 7.9 256 7.9 101690 100
2008-11-27 09:17:44 51°25.125 2°45.371 8 256 7.9 101690 100
2008-11-27 09:17:49 51°25.14 2°45.36 8 258 7.9 101690 100
2008-11-27 09:17:54 51°25.155 2°45.348 10.7 258 7.9 101690 100
2008-11-27 09:17:59 51°25.17 2°45.337 8.6 256 7.9 101690 100
2008-11-27 09:18:04 51°25.184 2°45.325 8.7 260 7.9 101700 100
2008-11-27 09:18:09 51°25.199 2°45.313 9.6 260 7.9 101700 100
2008-11-27 09:18:14 51°25.214 2°45.3 10.5 257 7.9 101700 100
2008-11-27 09:18:19 51°25.228 2°45.289 7.9 256 7.9 101700 100
2008-11-27 09:18:24 51°25.243 2°45.278 9.7 259 8 101690 100
2008-11-27 09:18:29 51°25.257 2°45.265 8 256 8 101690 100
2008-11-27 09:18:34 51°25.272 2°45.255 7.2 257 7.9 101690 100
2008-11-27 09:18:39 51°25.286 2°45.241 8.8 259 7.9 101690 100
2008-11-27 09:18:44 51°25.301 2°45.231 7.5 254 7.9 101690 100
2008-11-27 09:18:49 51°25.315 2°45.216 8.9 254 7.9 101690 100
2008-11-27 09:18:54 51°25.33 2°45.206 9 258 8 101690 100
2008-11-27 09:18:59 51°25.344 2°45.193 8.3 258 8 101690 100
2008-11-27 09:19:04 51°25.359 2°45.18 9.8 256 8 101680 100
2008-11-27 09:19:09 51°25.374 2°45.168 10 258 8 101680 100
2008-11-27 09:19:14 51°25.389 2°45.156 8.9 258 8 101690 100
2008-11-27 09:19:19 51°25.403 2°45.144 7.1 258 8 101690 100
2008-11-27 09:19:24 51°25.418 2°45.132 6.6 259 8 101690 100
2008-11-27 09:19:29 51°25.433 2°45.121 9.8 259 8 101690 100
2008-11-27 09:19:34 51°25.447 2°45.108 8 259 8 101680 100
2008-11-27 09:19:39 51°25.462 2°45.097 7.8 257 8 101680 100
2008-11-27 09:19:44 51°25.476 2°45.084 9.8 259 8 101690 100
2008-11-27 09:19:50 51°25.494 2°45.071 6.2 262 8 101690 100
2008-11-27 09:19:54 51°25.505 2°45.059 8.6 259 8 101690 100
2008-11-27 09:19:59 51°25.52 2°45.047 6.6 257 8 101690 100
2008-11-27 09:20:04 51°25.534 2°45.036 5.5 249 8 101690 100
2008-11-27 09:20:09 51°25.549 2°45.022 7.5 260 8 101690 100
2008-11-27 09:20:14 51°25.563 2°45.01 7.9 259 8 101700 100
2008-11-27 09:20:19 51°25.577 2°44.997 6.1 254 8 101700 100
2008-11-27 09:20:24 51°25.592 2°44.985 5.9 255 8 101690 100
2008-11-27 09:20:29 51°25.606 2°44.972 6.5 255 8 101690 100
2008-11-27 09:20:34 51°25.621 2°44.961 8.5 252 8 101700 100
2008-11-27 09:20:39 51°25.635 2°44.946 8.8 258 8 101700 100
2008-11-27 09:20:44 51°25.65 2°44.936 5.5 253 8 101690 100
2008-11-27 09:20:49 51°25.664 2°44.921 8.5 255 8 101690 100
2008-11-27 09:20:54 51°25.678 2°44.91 8.4 257 8 101690 100
2008-11-27 09:20:59 51°25.693 2°44.898 8.7 257 8 101690 100
2008-11-27 09:21:04 51°25.707 2°44.885 7.7 260 8 101680 100
2008-11-27 09:21:09 51°25.722 2°44.873 8.4 258 8 101680 100
2008-11-27 09:21:14 51°25.737 2°44.861 8 259 8 101700 100
2008-11-27 09:21:19 51°25.751 2°44.847 4.3 264 8 101700 100
2008-11-27 09:21:24 51°25.766 2°44.837 7.5 260 8 101690 100
2008-11-27 09:21:29 51°25.78 2°44.823 7.6 259 8 101690 100
2008-11-27 09:21:34 51°25.795 2°44.811 8.4 256 8 101680 100
2008-11-27 09:21:39 51°25.809 2°44.798 6.2 259 8 101680 100
2008-11-27 09:21:44 51°25.823 2°44.787 6.5 256 8 101680 100
2008-11-27 09:21:49 51°25.838 2°44.773 9.7 257 8 101680 100
2008-11-27 09:21:54 51°25.852 2°44.762 8.9 257 8 101680 100
2008-11-27 09:21:59 51°25.867 2°44.751 9 257 8 101680 100
2008-11-27 09:22:04 51°25.882 2°44.738 7.4 255 8 101690 100
2008-11-27 09:22:10 51°25.899 2°44.724 9.3 259 8 101690 100
2008-11-27 09:22:14 51°25.911 2°44.715 8 258 8.1 101690 100
2008-11-27 09:22:19 51°25.925 2°44.704 8.7 258 8.1 101690 100
2008-11-27 09:22:24 51°25.94 2°44.691 9.3 258 8.1 101680 100
2008-11-27 09:22:30 51°25.958 2°44.678 6 259 8.1 101680 100
2008-11-27 09:22:34 51°25.97 2°44.668 9 257 8 101680 100
2008-11-27 09:22:39 51°25.984 2°44.655 6.9 252 8 101680 100
2008-11-27 09:22:44 51°25.999 2°44.645 7.4 256 8.1 101670 100
2008-11-27 09:22:49 51°26.013 2°44.633 6.6 255 8.1 101670 100
2008-11-27 09:22:54 51°26.028 2°44.623 6.7 255 8.1 101680 100
2008-11-27 09:22:59 51°26.043 2°44.61 6.9 260 8.1 101680 100
2008-11-27 09:23:04 51°26.058 2°44.6 8.2 257 8.1 101680 100
2008-11-27 09:23:09 51°26.073 2°44.586 7.6 261 8.1 101680 100
2008-11-27 09:23:14 51°26.088 2°44.577 8.3 260 8.1 101690 100
2008-11-27 09:23:19 51°26.103 2°44.564 8.4 257 8.1 101690 100
2008-11-27 09:23:24 51°26.118 2°44.554 7 249 8.1 101670 100
2008-11-27 09:23:29 51°26.133 2°44.541 7.9 257 8.1 101670 100
2008-11-27 09:23:34 51°26.147 2°44.531 7.5 257 8.1 101670 100
2008-11-27 09:23:39 51°26.162 2°44.518 6.8 258 8.1 101670 100
2008-11-27 09:23:44 51°26.177 2°44.509 6.9 257 8.1 101680 100
2008-11-27 09:23:49 51°26.191 2°44.497 9.1 254 8.1 101680 100
2008-11-27 09:23:54 51°26.206 2°44.486 8.5 256 8.1 101680 100